sat.trackr.live / text

‹ back to catalog

UNKNOWN

NORAD 81015

UNKNOWN UNKNOWN UNKNOWN

§ Identity

Operator
Country
Launch date
Launch site
Launch vehicle
Mass (kg)
RCS (m²)

External: N2YO · Heavens-Above

§ Orbital elements

Epoch: 2026-05-24T23:37:06.398112Z

Period
102.26 min
Inclination
99.3618°
Eccentricity
0.0135452
Mean motion
14.08110830 rev/d
Perigee alt
767.7 km
Apogee alt
964.0 km
Semi-major
7,244.0 km
B*
1.1493e-3
RAAN
165.8336°
Arg perigee
59.1786°
Mean anomaly
4.9806°
Rev number
564

§ Raw data

UNKNOWN1 81015U          26144.98410183  .00002084  00000+0  11493-2 0  99992 81015  99.3618 165.8336 0135452  59.1786   4.9806 14.08110830  5649

JSON: /api/v1/satellites/81015 · /tle

For live sub-satellite position, see the globe view (requires WebGL).

§ Visibility from observer

Set your observer location to see the next 7 days of passes ≥ 10°. The values pass through the URL so the page stays shareable.

No JS? Fill the form by hand. The geolocation button needs JavaScript.